Time,TemperatureF,DewpointF,PressureIn,WindDirection,WindDirectionDegrees,WindSpeedMPH,WindSpeedGustMPH,Humidity,HourlyPrecipIn,Conditions,Clouds,dailyrainin,SolarRadiationWatts/m^2,SoftwareType,DateUTC
2013-06-18 00:02:00,39.0,38.0,-100.00,South,170,0.0,2.0,95,0.00,,,0.06,1.000000,,2013-06-18 05:02:00,
2013-06-18 00:12:00,39.0,38.0,-100.00,South,170,0.0,2.0,95,0.00,,,0.06,1.000000,,2013-06-18 05:12:00,
2013-06-18 00:22:00,39.0,38.0,-100.00,South,170,0.0,2.0,95,0.00,,,0.06,1.000000,,2013-06-18 05:22:00,
2013-06-18 00:34:00,39.0,38.0,-100.00,South,170,0.0,2.0,95,0.00,,,0.06,1.000000,,2013-06-18 05:34:00,
2013-06-18 01:02:00,36.0,35.0,-100.00,ESE,111,0.0,2.0,96,0.00,,,0.06,1.000000,,2013-06-18 06:02:00,
2013-06-18 01:11:00,36.0,35.0,-100.00,ESE,111,0.0,2.0,96,0.00,,,0.06,1.000000,,2013-06-18 06:11:00,
2013-06-18 01:23:00,36.0,35.0,-100.00,ESE,111,0.0,2.0,96,0.00,,,0.06,1.000000,,2013-06-18 06:23:00,
2013-06-18 01:32:00,36.0,35.0,-100.00,ESE,111,0.0,2.0,96,0.00,,,0.06,1.000000,,2013-06-18 06:32:00,
2013-06-18 02:02:00,35.0,34.0,-100.00,South,184,0.0,2.0,96,0.00,,,0.06,1.000000,,2013-06-18 07:02:00,
2013-06-18 02:12:00,35.0,34.0,-100.00,South,184,0.0,2.0,96,0.00,,,0.06,1.000000,,2013-06-18 07:12:00,
2013-06-18 02:22:00,35.0,34.0,-100.00,South,184,0.0,2.0,96,0.00,,,0.06,1.000000,,2013-06-18 07:22:00,
2013-06-18 02:33:00,35.0,34.0,-100.00,South,184,0.0,2.0,96,0.00,,,0.06,1.000000,,2013-06-18 07:33:00,
2013-06-18 03:02:00,33.0,32.0,-100.00,SSW,199,0.0,0.0,97,0.00,,,0.06,1.000000,,2013-06-18 08:02:00,
2013-06-18 03:11:00,33.0,32.0,-100.00,SSW,199,0.0,0.0,97,0.00,,,0.06,1.000000,,2013-06-18 08:11:00,
2013-06-18 03:23:00,33.0,32.0,-100.00,SSW,199,0.0,0.0,97,0.00,,,0.06,1.000000,,2013-06-18 08:23:00,
2013-06-18 03:33:00,33.0,32.0,-100.00,SSW,199,0.0,0.0,97,0.00,,,0.06,1.000000,,2013-06-18 08:33:00,
2013-06-18 04:02:00,32.0,31.0,-100.00,South,191,0.0,0.0,97,0.00,,,0.06,1.000000,,2013-06-18 09:02:00,
2013-06-18 04:12:00,32.0,31.0,-100.00,South,191,0.0,0.0,97,0.00,,,0.06,1.000000,,2013-06-18 09:12:00,
2013-06-18 04:22:00,32.0,31.0,-100.00,South,191,0.0,0.0,97,0.00,,,0.06,1.000000,,2013-06-18 09:22:00,
2013-06-18 04:34:00,32.0,31.0,-100.00,South,191,0.0,0.0,97,0.00,,,0.06,1.000000,,2013-06-18 09:34:00,
2013-06-18 05:02:00,31.0,30.0,-100.00,SW,214,0.0,0.0,97,0.00,,,0.06,1.000000,,2013-06-18 10:02:00,
2013-06-18 05:11:00,31.0,30.0,-100.00,SW,214,0.0,0.0,97,0.00,,,0.06,1.000000,,2013-06-18 10:11:00,
2013-06-18 05:22:00,31.0,30.0,-100.00,SW,214,0.0,0.0,97,0.00,,,0.06,1.000000,,2013-06-18 10:22:00,
2013-06-18 05:33:00,31.0,30.0,-100.00,SW,214,0.0,0.0,97,0.00,,,0.06,1.000000,,2013-06-18 10:33:00,
2013-06-18 06:02:00,32.0,31.0,-100.00,SSW,205,0.0,2.0,97,0.00,,,0.06,8.000000,,2013-06-18 11:02:00,
2013-06-18 06:11:00,32.0,31.0,-100.00,SSW,205,0.0,2.0,97,0.00,,,0.06,8.000000,,2013-06-18 11:11:00,
2013-06-18 06:22:00,32.0,31.0,-100.00,SSW,205,0.0,2.0,97,0.00,,,0.06,8.000000,,2013-06-18 11:22:00,
2013-06-18 06:32:00,32.0,31.0,-100.00,SSW,205,0.0,2.0,97,0.00,,,0.06,8.000000,,2013-06-18 11:32:00,
2013-06-18 07:01:00,39.0,37.0,-100.00,ESE,123,0.0,0.0,91,0.00,,,0.06,100.000000,,2013-06-18 12:01:00,
2013-06-18 07:11:00,39.0,37.0,-100.00,ESE,123,0.0,0.0,91,0.00,,,0.06,100.000000,,2013-06-18 12:11:00,
2013-06-18 07:22:00,39.0,37.0,-100.00,ESE,123,0.0,0.0,91,0.00,,,0.06,100.000000,,2013-06-18 12:22:00,
2013-06-18 07:33:00,39.0,37.0,-100.00,ESE,123,0.0,0.0,91,0.00,,,0.06,100.000000,,2013-06-18 12:33:00,
2013-06-18 08:02:00,49.0,41.0,-100.00,North,1,0.0,0.0,73,0.00,,,0.06,256.000000,,2013-06-18 13:02:00,
2013-06-18 08:12:00,49.0,41.0,-100.00,North,1,0.0,0.0,73,0.00,,,0.06,256.000000,,2013-06-18 13:12:00,
2013-06-18 08:22:00,49.0,41.0,-100.00,North,1,0.0,0.0,73,0.00,,,0.06,256.000000,,2013-06-18 13:22:00,
2013-06-18 08:33:00,49.0,41.0,-100.00,North,1,0.0,0.0,73,0.00,,,0.06,256.000000,,2013-06-18 13:33:00,
2013-06-18 09:02:00,56.0,41.0,-100.00,ENE,64,3.0,6.0,57,0.00,,,0.06,423.000000,,2013-06-18 14:02:00,
2013-06-18 09:11:00,56.0,41.0,-100.00,ENE,64,3.0,6.0,57,0.00,,,0.06,423.000000,,2013-06-18 14:11:00,
2013-06-18 09:22:00,56.0,41.0,-100.00,ENE,64,3.0,6.0,57,0.00,,,0.06,423.000000,,2013-06-18 14:22:00,
2013-06-18 09:33:00,56.0,41.0,-100.00,ENE,64,3.0,6.0,57,0.00,,,0.06,423.000000,,2013-06-18 14:33:00,
2013-06-18 10:02:00,62.0,43.0,-100.00,NNW,341,2.0,8.0,49,0.00,,,0.06,593.000000,,2013-06-18 15:02:00,
2013-06-18 10:11:00,62.0,43.0,-100.00,NNW,341,2.0,8.0,49,0.00,,,0.06,593.000000,,2013-06-18 15:11:00,
2013-06-18 10:22:00,62.0,43.0,-100.00,NNW,341,2.0,8.0,49,0.00,,,0.06,593.000000,,2013-06-18 15:22:00,
2013-06-18 10:33:00,62.0,43.0,-100.00,NNW,341,2.0,8.0,49,0.00,,,0.06,593.000000,,2013-06-18 15:33:00,
2013-06-18 11:01:00,65.0,40.0,-100.00,ESE,102,4.0,10.0,40,0.00,,,0.00,744.000000,,2013-06-18 16:01:00,
2013-06-18 11:11:00,65.0,40.0,-100.00,ESE,102,4.0,10.0,40,0.00,,,0.00,744.000000,,2013-06-18 16:11:00,
2013-06-18 11:23:00,65.0,40.0,-100.00,ESE,102,4.0,10.0,40,0.00,,,0.00,744.000000,,2013-06-18 16:23:00,
2013-06-18 11:33:00,65.0,40.0,-100.00,ESE,102,4.0,10.0,40,0.00,,,0.00,744.000000,,2013-06-18 16:33:00,
2013-06-18 12:02:00,66.0,38.0,-100.00,SSE,163,4.0,9.0,36,0.00,,,0.00,864.000000,,2013-06-18 17:02:00,
2013-06-18 12:12:00,66.0,38.0,-100.00,SSE,163,4.0,9.0,36,0.00,,,0.00,864.000000,,2013-06-18 17:12:00,
2013-06-18 12:22:00,66.0,38.0,-100.00,SSE,163,4.0,9.0,36,0.00,,,0.00,864.000000,,2013-06-18 17:22:00,
2013-06-18 12:33:00,66.0,38.0,-100.00,SSE,163,4.0,9.0,36,0.00,,,0.00,864.000000,,2013-06-18 17:33:00,
2013-06-18 13:02:00,68.0,39.0,-100.00,West,275,4.0,10.0,35,0.00,,,0.00,889.000000,,2013-06-18 18:02:00,
2013-06-18 13:11:00,68.0,39.0,-100.00,West,275,4.0,10.0,35,0.00,,,0.00,889.000000,,2013-06-18 18:11:00,
2013-06-18 13:22:00,68.0,39.0,-100.00,West,275,4.0,10.0,35,0.00,,,0.00,889.000000,,2013-06-18 18:22:00,
2013-06-18 13:33:00,68.0,39.0,-100.00,West,275,4.0,10.0,35,0.00,,,0.00,889.000000,,2013-06-18 18:33:00,
2013-06-18 14:02:00,70.0,37.0,-100.00,ENE,59,3.0,12.0,30,0.00,,,-99.99,972.000000,,2013-06-18 19:02:00,
2013-06-18 14:12:00,70.0,37.0,-100.00,ENE,59,3.0,12.0,30,0.00,,,-99.99,972.000000,,2013-06-18 19:12:00,
2013-06-18 14:22:00,70.0,37.0,-100.00,ENE,59,3.0,12.0,30,0.00,,,-99.99,972.000000,,2013-06-18 19:22:00,
2013-06-18 14:33:00,70.0,37.0,-100.00,ENE,59,3.0,12.0,30,0.00,,,-99.99,972.000000,,2013-06-18 19:33:00,
2013-06-18 15:02:00,70.0,36.0,-100.00,ENE,59,7.0,11.0,29,0.00,,,0.00,909.000000,,2013-06-18 20:02:00,
2013-06-18 15:11:00,70.0,36.0,-100.00,ENE,59,7.0,11.0,29,0.00,,,0.00,909.000000,,2013-06-18 20:11:00,
2013-06-18 15:23:00,70.0,36.0,-100.00,ENE,59,7.0,11.0,29,0.00,,,0.00,909.000000,,2013-06-18 20:23:00,
2013-06-18 15:33:00,70.0,36.0,-100.00,ENE,59,7.0,11.0,29,0.00,,,0.00,909.000000,,2013-06-18 20:33:00,
2013-06-18 16:02:00,72.0,39.0,-100.00,ESE,114,5.0,11.0,30,0.00,,,0.00,773.000000,,2013-06-18 21:02:00,
2013-06-18 16:11:00,72.0,39.0,-100.00,ESE,114,5.0,11.0,30,0.00,,,0.00,773.000000,,2013-06-18 21:11:00,
2013-06-18 16:23:00,72.0,39.0,-100.00,ESE,114,5.0,11.0,30,0.00,,,0.00,773.000000,,2013-06-18 21:23:00,
2013-06-18 16:33:00,72.0,39.0,-100.00,ESE,114,5.0,11.0,30,0.00,,,0.00,773.000000,,2013-06-18 21:33:00,
2013-06-18 17:02:00,73.0,37.0,-100.00,SW,225,4.0,9.0,27,0.00,,,0.00,695.000000,,2013-06-18 22:02:00,
2013-06-18 17:11:00,73.0,37.0,-100.00,SW,225,4.0,9.0,27,0.00,,,0.00,695.000000,,2013-06-18 22:11:00,
2013-06-18 17:22:00,73.0,37.0,-100.00,SW,225,4.0,9.0,27,0.00,,,0.00,695.000000,,2013-06-18 22:22:00,
2013-06-18 17:34:00,73.0,37.0,-100.00,SW,225,4.0,9.0,27,0.00,,,0.00,695.000000,,2013-06-18 22:34:00,
2013-06-18 18:02:00,71.0,36.0,-100.00,ESE,113,3.0,8.0,28,0.00,,,0.00,398.000000,,2013-06-18 23:02:00,
2013-06-18 18:11:00,71.0,36.0,-100.00,ESE,113,3.0,8.0,28,0.00,,,0.00,398.000000,,2013-06-18 23:11:00,
2013-06-18 18:23:00,71.0,36.0,-100.00,ESE,113,3.0,8.0,28,0.00,,,0.00,398.000000,,2013-06-18 23:23:00,
2013-06-18 18:36:00,71.0,36.0,-100.00,ESE,113,3.0,8.0,28,0.00,,,0.00,398.000000,,2013-06-18 23:36:00,
2013-06-18 19:01:00,73.0,40.0,-100.00,South,170,2.0,7.0,30,0.00,,,0.00,350.000000,,2013-06-19 00:01:00,
2013-06-18 19:11:00,73.0,40.0,-100.00,South,170,2.0,7.0,30,0.00,,,0.00,350.000000,,2013-06-19 00:11:00,
2013-06-18 19:22:00,73.0,40.0,-100.00,South,170,2.0,7.0,30,0.00,,,0.00,350.000000,,2013-06-19 00:22:00,
2013-06-18 19:33:00,73.0,40.0,-100.00,South,170,2.0,7.0,30,0.00,,,0.00,350.000000,,2013-06-19 00:33:00,
2013-06-18 20:01:00,67.0,41.0,-100.00,ENE,62,7.0,11.0,38,0.00,,,0.00,246.000000,,2013-06-19 01:01:00,
2013-06-18 20:11:00,67.0,41.0,-100.00,ENE,62,7.0,11.0,38,0.00,,,0.00,246.000000,,2013-06-19 01:11:00,
2013-06-18 20:22:00,67.0,41.0,-100.00,ENE,62,7.0,11.0,38,0.00,,,0.00,246.000000,,2013-06-19 01:22:00,
2013-06-18 20:32:00,67.0,41.0,-100.00,ENE,62,7.0,11.0,38,0.00,,,0.00,246.000000,,2013-06-19 01:32:00,
2013-06-18 21:01:00,61.0,40.0,-100.00,East,83,2.0,7.0,46,0.00,,,0.00,68.000000,,2013-06-19 02:01:00,
2013-06-18 21:11:00,61.0,40.0,-100.00,East,83,2.0,7.0,46,0.00,,,0.00,68.000000,,2013-06-19 02:11:00,
2013-06-18 21:21:00,61.0,40.0,-100.00,East,83,2.0,7.0,46,0.00,,,0.00,68.000000,,2013-06-19 02:21:00,
2013-06-18 21:32:00,61.0,40.0,-100.00,East,83,2.0,7.0,46,0.00,,,0.00,68.000000,,2013-06-19 02:32:00,
2013-06-18 22:01:00,52.0,43.0,-100.00,SSW,206,0.0,2.0,71,0.00,,,0.00,3.000000,,2013-06-19 03:01:00,
2013-06-18 22:11:00,52.0,43.0,-100.00,SSW,206,0.0,2.0,71,0.00,,,0.00,3.000000,,2013-06-19 03:11:00,
2013-06-18 22:22:00,52.0,43.0,-100.00,SSW,206,0.0,2.0,71,0.00,,,0.00,3.000000,,2013-06-19 03:22:00,
2013-06-18 22:33:00,52.0,43.0,-100.00,SSW,206,0.0,2.0,71,0.00,,,0.00,3.000000,,2013-06-19 03:33:00,
2013-06-18 23:01:00,47.0,43.0,-100.00,South,175,0.0,0.0,87,0.00,,,0.00,1.000000,,2013-06-19 04:01:00,
2013-06-18 23:11:00,47.0,43.0,-100.00,South,175,0.0,0.0,87,0.00,,,0.00,1.000000,,2013-06-19 04:11:00,
2013-06-18 23:22:00,47.0,43.0,-100.00,South,175,0.0,0.0,87,0.00,,,0.00,1.000000,,2013-06-19 04:22:00,
2013-06-18 23:32:00,47.0,43.0,-100.00,South,175,0.0,0.0,87,0.00,,,0.00,1.000000,,2013-06-19 04:32:00,